CAPE
nan nan nan nan nan nan nan nan nan nan nan nan nan nan nan nan nan nan nan nan nan nan nan nan nan nan nan nan 0 0 0 1 1 1 2 3 4 4 5 4 4 4 4 5 5 6 8 9 9 10 10 12 15 15 18 20 20 22 26 28 28 33 35 37 37 39 39 39 40 40 39 35 31 31 30 33 35 35 36 36 36 36 36 37 37 44
nan nan nan nan nan nan nan nan nan nan nan nan nan nan nan nan nan nan nan nan nan nan nan nan nan nan nan nan nan nan 0 0 0 0 1 1 2 2 3 3 3 3 3 4 4 5 6 8 8 9 10 11 13 13 16 18 18 20 24 27 27 31 35 39 39 41 42 42 40 40 37 32 30 30 33 37 39 39 39 39 39 40 41 46 46 50
nan nan nan nan nan nan nan nan nan nan nan nan nan nan nan nan nan nan nan nan nan nan nan nan nan nan nan nan nan nan nan nan nan nan 0 0 1 1 2 2 2 2 2 3 3 4 5 7 7 8 8 9 11 11 12 15 15 17 19 21 21 26 30 36 36 38 39 38 35 35 30 29 29 29 35 38 40 40 39 41 41 43 44 51 51 61
nan nan nan nan nan nan nan nan nan nan nan nan nan nan nan nan nan nan nan nan nan nan nan nan nan nan nan nan nan nan nan nan nan nan nan nan 0 0 0 1 1 1 1 2 2 3 4 6 6 6 7 8 8 8 10 12 12 14 17 19 19 24 27 30 30 32 32 30 28 28 27 28 32 32 34 38 41 41 42 46 46 50 54 60 60 65
nan nan nan nan nan nan nan nan nan nan nan nan nan nan nan nan nan nan nan nan nan nan nan nan nan nan nan nan nan nan nan nan nan nan nan nan nan nan nan 0 0 1 1 1 1 2 3 4 4 5 5 6 7 7 9 12 12 14 16 18 18 23 25 27 27 28 27 28 27 27 27 29 33 33 37 41 47 47 52 54 54 56 56 66 66 73
nan nan nan nan nan nan nan nan nan nan nan nan nan nan nan nan nan nan nan nan nan nan nan nan nan nan nan nan nan nan nan nan nan nan nan nan nan nan nan nan nan nan 0 1 1 1 2 3 3 4 5 5 6 6 8 11 11 13 16 19 19 23 25 27 27 28 26 26 27 27 28 31 36 36 40 45 50 50 54 57 57 58 59 63 63 69
nan nan nan nan nan nan nan nan nan nan nan nan nan nan nan nan nan nan nan nan nan nan nan nan nan nan nan nan nan nan nan nan nan nan nan nan nan nan nan nan nan nan nan 0 0 0 1 2 2 3 3 4 5 5 8 11 11 13 15 19 19 23 25 27 27 26 26 27 28 28 30 33 38 38 41 44 49 49 51 55 55 55 51 52 52 58
nan nan nan nan nan nan nan nan nan nan nan nan nan nan nan nan nan nan nan nan nan nan nan nan nan nan nan nan nan nan nan nan nan nan nan nan nan nan nan nan nan nan nan nan nan nan 0 1 1 1 1 2 4 4 6 8 8 12 15 20 20 25 27 28 28 30 30 31 33 33 35 35 37 37 36 34 34 34 35 40 40 44 46 46 46 47
nan nan nan nan nan nan nan nan nan nan nan nan nan nan nan nan nan nan nan nan nan nan nan nan nan nan nan nan nan nan nan nan nan nan nan nan nan nan nan nan nan nan nan nan nan nan nan 0 0 0 0 0 2 2 5 8 8 12 17 23 23 26 27 28 28 30 30 30 33 33 35 33 33 33 32 30 29 29 30 34 34 38 44 46 46 50
nan nan nan nan nan nan nan nan nan nan nan nan nan nan nan nan nan nan nan nan nan nan nan nan nan nan nan nan nan nan nan nan nan nan nan nan nan nan nan nan nan nan nan nan nan nan nan nan nan nan nan nan 1 1 5 8 8 13 18 24 24 26 28 27 27 29 30 31 31 31 31 31 29 29 30 29 28 28 30 29 29 33 38 45 45 51
nan nan nan nan nan nan nan nan nan nan nan nan nan nan nan nan nan nan nan nan nan nan nan nan nan nan nan nan nan nan nan nan nan nan nan nan nan nan nan nan nan nan nan nan nan nan nan nan nan nan nan nan 1 1 4 7 7 14 19 24 24 25 26 26 26 27 27 29 30 30 29 30 29 29 29 30 29 29 29 29 29 30 34 42 42 51
nan nan nan nan nan nan nan nan nan nan nan nan nan nan nan nan nan nan nan nan nan nan nan nan nan nan nan nan nan nan nan nan nan nan nan nan nan nan nan nan nan nan nan nan nan nan nan nan nan nan nan nan 0 0 4 7 7 14 20 23 23 24 24 24 24 24 26 27 28 28 28 28 28 28 30 32 32 32 33 31 31 32 33 39 39 48
nan nan nan nan nan nan nan nan nan nan nan nan nan nan nan nan nan nan nan nan nan nan nan nan nan nan nan nan nan nan nan nan nan nan nan nan nan nan nan nan nan nan nan nan nan nan nan nan nan nan nan nan 0 0 5 9 9 14 20 22 22 22 22 23 23 23 25 26 27 27 28 28 30 30 31 32 34 34 33 34 34 34 37 40 40 47
nan nan nan nan nan nan nan nan nan nan nan nan nan nan nan nan nan nan nan nan nan nan nan nan nan nan nan nan nan nan nan nan nan nan nan nan nan nan nan nan nan nan nan nan nan nan nan nan nan nan nan nan nan nan 4 9 9 15 19 22 22 22 21 23 23 23 24 24 26 26 27 27 30 30 31 33 36 36 36 37 37 37 38 40 40 44
nan nan nan nan nan nan nan nan nan nan nan nan nan nan nan nan nan nan nan nan nan nan nan nan nan nan nan nan nan nan nan nan nan nan nan nan nan nan nan nan nan nan nan nan nan nan nan nan nan nan nan nan nan nan 2 6 6 16 17 18 18 18 20 22 22 23 23 24 25 25 26 28 30 30 31 34 34 34 36 37 37 39 41 41 41 44
nan nan nan nan nan nan nan nan nan nan nan nan nan nan nan nan nan nan nan nan nan nan nan nan nan nan nan nan nan nan nan nan nan nan nan nan nan nan nan nan nan nan nan nan nan nan nan nan nan nan nan nan 1 1 4 8 8 14 15 16 16 16 17 20 20 20 22 23 24 24 26 29 30 30 32 33 35 35 37 36 36 38 40 40 40 43
nan nan nan nan nan nan nan nan nan nan nan nan nan nan nan nan nan nan nan nan nan nan nan nan nan nan nan nan nan nan nan nan nan nan nan nan nan nan nan nan nan nan nan nan nan nan nan nan nan nan nan nan 2 2 3 6 6 11 14 14 14 14 16 19 19 21 22 24 26 26 28 29 31 31 33 32 35 35 36 37 37 39 40 42 42 42
nan nan nan nan nan nan nan nan nan nan nan nan nan nan nan nan nan nan nan nan nan nan nan nan nan nan nan nan nan nan nan nan nan nan nan nan nan nan nan nan nan nan nan nan nan nan nan nan nan nan nan 0 1 1 4 6 6 9 13 13 13 14 16 19 19 22 24 25 27 27 28 29 31 31 33 32 33 33 35 36 36 38 39 39 39 39
nan nan nan nan nan nan nan nan nan nan nan nan nan nan nan nan nan nan nan nan nan nan nan nan nan nan nan nan nan nan nan nan nan nan nan nan nan nan nan nan nan nan nan nan nan nan nan nan nan nan nan 0 1 1 4 6 6 9 11 12 12 14 16 20 20 22 24 25 27 27 28 29 29 29 30 32 32 32 34 36 36 37 36 37 37 37
nan nan nan nan nan nan nan nan nan nan nan nan nan nan nan nan nan nan nan nan nan nan nan nan nan nan nan nan nan nan nan nan nan nan nan nan nan nan nan nan nan nan nan nan nan nan nan nan nan nan nan nan 1 1 4 6 6 9 11 13 13 15 18 21 21 23 25 26 26 26 28 29 30 30 30 31 32 32 34 35 35 35 36 38 38 37
nan nan nan nan nan nan nan nan nan nan nan nan nan nan nan nan nan nan nan nan nan nan nan nan nan nan nan nan nan nan nan nan nan nan nan nan nan nan nan nan nan nan nan nan nan nan nan nan nan nan nan nan 1 1 3 5 5 7 10 12 12 16 19 21 21 22 25 27 27 27 28 30 30 30 29 29 30 30 32 34 34 33 34 36 36 36
nan nan nan nan nan nan nan nan nan nan nan nan nan nan nan nan nan nan nan nan nan nan nan nan nan nan nan nan nan nan nan nan nan nan nan nan nan nan nan nan nan nan nan nan nan nan nan nan nan nan nan 0 1 1 3 4 4 7 9 12 12 16 18 21 21 22 24 25 27 27 29 29 29 29 29 29 29 29 30 31 31 33 35 34 34 34
nan nan nan nan nan nan nan nan nan nan nan nan nan nan nan nan nan nan nan nan nan nan nan nan nan nan nan nan nan nan nan nan nan nan nan nan nan nan nan nan nan nan nan nan nan nan nan nan nan nan nan 0 1 1 2 3 3 5 8 13 13 17 19 20 20 20 22 25 27 27 27 28 28 28 28 29 29 29 29 30 30 32 32 31 31 33
nan nan nan nan nan nan nan nan nan nan nan nan nan nan nan nan nan nan nan nan nan nan nan nan nan nan nan nan nan nan nan nan nan nan nan nan nan nan nan nan nan nan nan nan nan nan nan nan nan nan nan nan 0 0 1 2 2 5 9 13 13 16 18 18 18 18 21 22 24 24 27 27 29 29 28 28 28 28 27 28 28 29 30 30 30 27
nan nan nan nan nan nan nan nan nan nan nan nan nan nan nan nan 0 0 nan nan nan nan nan nan nan nan nan nan nan nan nan nan nan nan nan nan nan nan nan nan nan nan nan nan nan nan nan nan nan nan nan nan nan nan 1 2 2 4 9 12 12 14 16 17 17 17 18 20 23 23 25 26 28 28 29 29 27 27 27 28 28 29 30 27 27 24
nan nan nan nan nan nan nan 7 16 16 1 nan nan nan nan 0 nan nan nan nan nan nan nan nan nan nan nan nan nan nan nan nan nan nan nan nan nan nan nan nan nan nan nan nan nan nan nan nan nan nan nan nan nan nan nan 1 1 4 8 10 10 13 13 15 15 15 16 18 20 20 22 26 27 27 28 28 27 27 27 27 27 29 27 25 25 22
2 0 1 2 2 3 4 4 5 5 6 11 3 3 1 nan nan nan nan nan nan nan nan nan nan nan nan nan nan nan nan nan nan nan nan nan nan nan nan nan nan nan nan nan nan nan nan nan nan nan nan nan nan nan nan 2 2 4 6 9 9 10 11 11 11 13 14 17 19 19 20 22 26 26 28 27 26 26 27 27 27 28 27 25 25 21
nan nan nan 0 0 0 1 2 3 3 4 7 10 10 1 nan nan nan nan nan nan nan nan nan nan nan nan nan nan nan nan nan nan nan nan nan nan nan nan nan nan nan nan nan nan nan nan nan nan nan nan nan nan nan nan 1 1 3 4 7 7 8 8 8 8 10 12 14 16 16 19 21 23 23 24 26 26 26 27 27 27 29 27 16 16 2
nan nan nan nan nan nan 1 0 1 1 1 4 11 11 nan nan nan nan nan nan nan nan nan nan nan nan nan nan nan nan nan nan nan nan nan nan nan nan nan nan nan nan nan nan nan nan nan nan nan nan nan nan nan nan nan 0 0 1 3 4 4 5 5 6 6 8 10 13 14 14 16 18 20 20 22 23 26 26 28 28 28 29 20 8 8 1
nan nan nan nan nan nan nan nan nan nan 1 3 5 5 nan nan nan nan nan nan nan nan nan nan nan nan nan nan nan nan nan nan nan nan nan nan nan nan nan 0 0 nan nan nan nan nan nan nan nan nan nan nan nan nan nan nan nan nan nan 0 0 1 2 4 4 5 8 9 11 11 14 15 17 17 20 22 25 25 26 29 29 24 9 1 1 0
nan nan nan nan nan nan nan nan nan nan nan 1 nan nan nan nan nan nan nan nan nan nan nan nan nan nan nan nan nan nan nan nan nan nan nan nan nan nan nan 0 0 nan 0 nan nan nan nan nan nan nan nan nan nan nan nan nan nan nan nan nan nan nan 0 2 2 4 5 7 9 9 11 13 15 15 17 21 24 24 26 29 29 24 5 1 1 0
nan nan nan nan nan nan nan nan nan nan nan nan nan nan nan nan nan nan nan nan nan nan nan nan nan nan nan nan nan nan nan nan nan nan 1 0 1 1 nan 0 0 0 0 3 3 0 nan nan nan nan nan nan nan nan nan nan nan nan nan nan nan nan nan 0 0 1 1 4 5 5 6 8 11 11 14 16 19 19 22 24 24 21 6 1 1 1
nan nan nan nan nan nan nan nan nan nan nan nan nan nan nan nan nan nan nan nan nan nan nan nan nan nan nan nan nan nan nan nan nan nan 5 0 1 1 0 0 0 1 0 1 1 1 nan nan nan nan nan nan nan nan nan nan nan nan nan nan nan nan nan nan nan nan nan nan nan nan 4 5 8 8 11 14 16 16 18 21 21 22 17 0 0 1
nan nan nan nan nan nan nan nan nan nan nan nan nan nan nan nan nan nan nan nan nan nan nan nan nan nan nan nan nan nan nan nan nan nan 5 0 1 1 1 1 1 1 1 0 0 0 nan nan nan nan nan nan nan nan nan nan nan nan nan nan nan nan nan nan nan nan nan nan nan nan nan nan 3 3 5 9 12 12 15 17 17 18 18 7 7 4
nan nan nan nan nan nan nan nan nan nan nan nan nan nan nan nan nan nan nan nan nan nan nan nan nan nan nan nan 0 0 nan nan nan nan 8 1 1 1 1 1 1 1 1 1 1 1 0 0 0 1 0 nan nan nan nan nan nan nan nan nan nan nan nan nan nan nan nan nan nan nan nan nan nan nan nan 4 9 9 12 12 12 13 15 20 20 16
nan nan nan nan nan nan nan nan nan nan nan nan nan nan nan nan nan nan nan nan nan nan nan nan nan nan nan nan nan nan nan nan 1 1 5 0 nan nan nan 0 0 2 1 1 1 1 1 1 1 2 2 nan nan nan nan nan nan nan nan nan nan nan nan nan nan nan nan nan nan nan nan nan nan nan nan 5 8 8 7 7 7 10 13 17 17 21
nan nan nan nan nan nan nan nan nan nan nan nan nan nan nan nan nan nan nan nan nan nan nan nan nan nan nan nan nan nan nan nan nan nan nan nan nan nan nan 0 0 2 nan 0 0 0 0 1 1 1 1 nan nan nan nan nan nan nan nan nan nan nan nan nan nan nan nan nan nan nan nan nan nan nan nan 3 1 1 3 5 5 6 11 14 14 16
nan nan nan nan nan nan nan nan nan nan nan nan nan nan nan nan nan nan nan nan nan nan nan nan nan nan nan 1 nan nan nan nan nan nan nan nan nan nan nan nan nan nan nan nan nan nan nan 0 0 0 nan nan nan nan nan nan nan nan nan nan nan nan nan nan nan nan nan nan nan nan nan nan nan nan nan nan nan nan nan nan nan nan 6 7 7 13
nan nan nan nan nan nan nan nan nan nan nan nan nan nan nan nan nan nan nan nan nan nan nan nan nan nan nan nan nan nan nan nan nan nan nan nan nan nan nan nan nan nan nan nan nan nan nan nan nan nan nan nan nan nan nan nan nan nan nan nan nan nan nan nan nan nan nan nan nan nan nan nan nan nan nan nan nan nan nan nan nan nan nan nan nan 2
nan nan nan nan nan nan nan nan nan nan nan nan nan nan nan nan nan nan nan nan nan nan nan nan nan nan nan nan nan nan nan nan nan nan nan nan nan nan nan nan nan nan nan nan nan nan nan nan nan 0 2 0 nan nan nan nan nan nan 2 nan nan nan nan nan nan nan nan nan nan nan nan nan nan nan nan nan nan nan nan nan nan nan nan nan nan nan
nan nan nan nan nan nan nan nan nan nan nan nan nan nan nan nan nan nan nan nan nan nan nan nan nan nan nan nan nan nan nan nan nan nan nan nan nan nan nan nan nan nan nan nan nan nan nan nan nan 0 0 0 0 0 0 nan nan 1 4 0 0 nan nan nan nan nan nan nan nan nan nan nan nan nan nan nan nan nan nan nan nan nan nan nan nan nan
nan nan nan nan nan nan nan nan nan nan nan nan nan nan nan nan nan nan nan nan nan nan nan nan nan nan nan nan nan nan nan nan nan nan nan nan nan nan nan nan nan nan nan nan nan nan nan nan nan 0 nan nan nan nan nan nan nan 1 2 nan nan nan 1 nan nan nan nan nan nan nan nan nan nan nan nan nan nan nan nan nan nan nan nan nan nan nan
nan nan nan nan nan nan nan nan nan nan nan nan nan nan nan nan nan nan nan nan nan nan nan nan nan nan nan nan nan nan nan nan nan nan nan nan nan nan nan nan nan nan nan nan nan nan nan nan nan nan nan nan nan nan nan nan nan nan nan nan nan nan nan nan nan nan nan nan nan nan nan nan nan nan nan nan nan nan nan nan nan 0 0 nan nan nan
nan nan nan nan nan nan nan nan nan nan nan nan nan nan nan nan nan nan nan nan nan nan nan nan nan nan nan nan nan nan nan nan nan nan nan nan nan nan nan nan nan nan nan nan nan nan nan nan nan nan nan nan nan nan nan nan nan nan nan nan nan nan nan nan nan nan nan nan nan nan nan nan nan nan nan nan nan nan nan nan nan nan nan nan nan nan
nan nan nan nan nan nan nan nan nan nan nan nan nan nan nan nan nan nan nan nan nan nan nan nan nan nan nan nan nan nan nan nan nan nan nan nan nan nan nan nan nan nan nan nan nan nan nan nan nan nan nan nan nan nan nan nan nan nan nan nan nan nan nan nan nan nan nan nan nan nan nan nan nan nan nan nan nan nan nan nan nan nan nan nan nan nan
nan nan nan nan nan nan nan nan nan nan nan nan nan nan nan nan nan nan nan nan nan nan nan nan nan nan nan nan nan nan nan nan nan nan nan nan nan nan nan nan nan nan nan nan nan nan nan nan nan nan nan nan nan nan nan nan nan nan nan nan nan nan nan nan nan nan nan nan nan nan nan nan nan nan nan nan nan nan nan nan nan nan nan nan nan nan
nan nan nan nan nan nan nan nan nan nan nan nan nan nan nan nan nan nan nan nan nan nan nan nan nan nan nan nan nan nan nan nan nan nan nan nan nan nan nan nan nan nan nan nan nan nan nan nan nan nan nan nan nan nan nan nan nan nan nan nan nan nan nan nan nan nan nan nan nan nan nan nan nan nan nan 0 nan nan nan nan nan nan nan nan nan nan
nan nan nan nan nan nan nan nan nan nan nan nan nan nan nan nan nan nan nan nan nan nan 0 nan nan nan nan nan nan nan nan nan nan nan nan nan nan nan nan nan nan nan nan nan nan nan nan nan nan nan nan nan nan nan nan nan nan nan nan nan nan nan nan nan nan nan nan nan nan nan nan nan nan nan nan nan 0 0 nan nan nan nan nan nan nan nan
nan nan nan nan nan nan nan nan nan nan nan nan nan nan nan nan 4 4 0 nan nan nan nan nan nan nan nan nan nan nan 0 nan nan nan nan nan nan nan nan nan nan nan nan nan nan nan nan nan nan nan nan nan nan nan nan nan nan nan nan nan nan nan nan nan nan nan nan nan nan nan nan nan nan nan nan 0 0 0 nan 0 0 nan nan nan nan nan
nan nan nan nan nan nan nan nan nan nan nan nan nan nan nan nan nan nan nan nan nan nan nan nan nan nan nan nan nan nan nan nan nan nan nan nan nan nan nan nan nan nan nan nan nan nan nan nan nan nan nan nan nan nan nan nan nan nan nan nan nan nan nan nan nan nan nan nan nan nan nan nan nan nan 0 nan 1 1 2 3 3 0 nan nan nan nan
nan nan nan nan nan nan nan nan nan nan nan nan nan nan nan nan nan nan nan nan nan nan nan nan nan nan nan nan nan nan 0 nan nan nan nan nan nan nan nan nan nan nan nan nan nan nan nan nan nan nan nan 1 nan nan nan nan nan nan nan nan nan nan nan nan nan nan nan nan nan nan nan nan 0 0 0 0 2 2 4 3 3 0 nan nan nan nan
CIN
nan nan nan nan nan nan nan nan nan nan nan nan nan nan nan nan nan nan nan nan nan nan nan nan nan nan nan nan -0 -0 -0 -0 -0 -0 -0 -0 -0 -0 -0 -0 -0 -0 -0 -0 -0 -0 -0 -0 -0 -0 -0 -0 -0 -0 -0 -0 -0 -0 -0 -0 -0 -0 -0 -0 -0 -0 -0 -0 -0 -0 -0 -0 -0 -0 -0 -0 -0 -0 -0 -0 -0 -0 -0 -0 -0 -0
nan nan nan nan nan nan nan nan nan nan nan nan nan nan nan nan nan nan nan nan nan nan nan nan nan nan nan nan nan nan -0 -0 -0 -0 -0 -0 -0 -0 -0 -0 -0 -0 -0 -0 -0 -0 -0 -0 -0 -0 -0 -0 -0 -0 -0 -0 -0 -0 -0 -0 -0 -0 -0 -0 -0 -0 -0 -0 -0 -0 -0 -0 -0 -0 -0 -0 -0 -0 -0 -0 -0 -0 -0 -0 -0 -0
nan nan nan nan nan nan nan nan nan nan nan nan nan nan nan nan nan nan nan nan nan nan nan nan nan nan nan nan nan nan nan nan nan nan -0 -0 -0 -0 -0 -0 -0 -0 -0 -0 -0 -0 -0 -0 -0 -0 -0 -0 -0 -0 -0 -0 -0 -0 -0 -0 -0 -0 -0 -0 -0 -0 -0 -0 -0 -0 -0 -0 -0 -0 -0 -0 -0 -0 -0 -0 -0 -0 -0 -0 -0 -0
nan nan nan nan nan nan nan nan nan nan nan nan nan nan nan nan nan nan nan nan nan nan nan nan nan nan nan nan nan nan nan nan nan nan nan nan -0 -0 -0 -0 -0 -0 -0 -0 -0 -0 -0 -0 -0 -0 -0 -0 -0 -0 -0 -0 -0 -0 -0 -0 -0 -0 -0 -0 -0 -0 -0 -0 -0 -0 -0 -0 -0 -0 -0 -0 -0 -0 -0 -0 -0 -0 -0 -0 -0 -0
nan nan nan nan nan nan nan nan nan nan nan nan nan nan nan nan nan nan nan nan nan nan nan nan nan nan nan nan nan nan nan nan nan nan nan nan nan nan nan -0 -0 -0 -0 -0 -0 -0 -0 -0 -0 -0 -0 -0 -0 -0 -0 -0 -0 -0 -0 -0 -0 -0 -0 -0 -0 -0 -0 -0 -0 -0 -0 -0 -0 -0 -0 -0 -0 -0 -0 -0 -0 -0 -0 -0 -0 -0
nan nan nan nan nan nan nan nan nan nan nan nan nan nan nan nan nan nan nan nan nan nan nan nan nan nan nan nan nan nan nan nan nan nan nan nan nan nan nan nan nan nan -0 -0 -0 -0 -0 -0 -0 -0 -0 -0 -0 -0 -0 -0 -0 -0 -0 -0 -0 -0 -0 -0 -0 -0 -0 -0 -0 -0 -0 -0 -0 -0 -0 -0 -0 -0 -0 -0 -0 -0 -0 -0 -0 -0
nan nan nan nan nan nan nan nan nan nan nan nan nan nan nan nan nan nan nan nan nan nan nan nan nan nan nan nan nan nan nan nan nan nan nan nan nan nan nan nan nan nan nan -0 -0 -0 -0 -0 -0 -0 -0 -0 -0 -0 -0 -0 -0 -0 -0 -0 -0 -0 -0 -0 -0 -0 -0 -0 -0 -0 -0 -0 -0 -0 -0 -0 -0 -0 -0 -0 -0 -0 -0 -0 -0 -0
nan nan nan nan nan nan nan nan nan nan nan nan nan nan nan nan nan nan nan nan nan nan nan nan nan nan nan nan nan nan nan nan nan nan nan nan nan nan nan nan nan nan nan nan nan nan -0 -0 -0 -0 -0 -0 -0 -0 -0 -0 -0 -0 -0 -0 -0 -0 -0 -0 -0 -0 -0 -0 -0 -0 -0 -0 -0 -0 -0 -0 -0 -0 -0 -0 -0 -0 -0 -0 -0 -0
nan nan nan nan nan nan nan nan nan nan nan nan nan nan nan nan nan nan nan nan nan nan nan nan nan nan nan nan nan nan nan nan nan nan nan nan nan nan nan nan nan nan nan nan nan nan nan -0 -0 -0 -0 -0 -0 -0 -0 -0 -0 -0 -0 -0 -0 -0 -0 -0 -0 -0 -0 -0 -0 -0 -0 -0 -0 -0 -0 -0 -0 -0 -0 -0 -0 -0 -0 -0 -0 -0
nan nan nan nan nan nan nan nan nan nan nan nan nan nan nan nan nan nan nan nan nan nan nan nan nan nan nan nan nan nan nan nan nan nan nan nan nan nan nan nan nan nan nan nan nan nan nan nan nan nan nan nan -0 -0 -0 -0 -0 -0 -0 -0 -0 -0 -0 -0 -0 -0 -0 -0 -0 -0 -0 -0 -0 -0 -0 -0 -0 -0 -0 -0 -0 -0 -0 -0 -0 -0
nan nan nan nan nan nan nan nan nan nan nan nan nan nan nan nan nan nan nan nan nan nan nan nan nan nan nan nan nan nan nan nan nan nan nan nan nan nan nan nan nan nan nan nan nan nan nan nan nan nan nan nan -0 -0 -0 -0 -0 -0 -0 -0 -0 -0 -0 -0 -0 -0 -0 -0 -0 -0 -0 -0 -0 -0 -0 -0 -0 -0 -0 -0 -0 -0 -0 -0 -0 -0
nan nan nan nan nan nan nan nan nan nan nan nan nan nan nan nan nan nan nan nan nan nan nan nan nan nan nan nan nan nan nan nan nan nan nan nan nan nan nan nan nan nan nan nan nan nan nan nan nan nan nan nan -0 -0 -0 -0 -0 -0 -0 -0 -0 -0 -0 -0 -0 -0 -0 -0 -0 -0 -0 -0 -0 -0 -0 -0 -0 -0 -0 -0 -0 -0 -0 -0 -0 -0
nan nan nan nan nan nan nan nan nan nan nan nan nan nan nan nan nan nan nan nan nan nan nan nan nan nan nan nan nan nan nan nan nan nan nan nan nan nan nan nan nan nan nan nan nan nan nan nan nan nan nan nan -0 -0 -0 -0 -0 -0 -0 -0 -0 -0 -0 -0 -0 -0 -0 -0 -0 -0 -0 -0 -0 -0 -0 -0 -0 -0 -0 -0 -0 -0 -0 -0 -0 -0
nan nan nan nan nan nan nan nan nan nan nan nan nan nan nan nan nan nan nan nan nan nan nan nan nan nan nan nan nan nan nan nan nan nan nan nan nan nan nan nan nan nan nan nan nan nan nan nan nan nan nan nan nan nan -0 -0 -0 -0 -0 -0 -0 -0 -0 -0 -0 -0 -0 -0 -0 -0 -0 -0 -0 -0 -0 -0 -0 -0 -0 -0 -0 -0 -0 -0 -0 -0
nan nan nan nan nan nan nan nan nan nan nan nan nan nan nan nan nan nan nan nan nan nan nan nan nan nan nan nan nan nan nan nan nan nan nan nan nan nan nan nan nan nan nan nan nan nan nan nan nan nan nan nan nan nan -0 -0 -0 -0 -0 -0 -0 -0 -0 -0 -0 -0 -0 -0 -0 -0 -0 -0 -0 -0 -0 -0 -0 -0 -0 -0 -0 -0 -0 -0 -0 -0
nan nan nan nan nan nan nan nan nan nan nan nan nan nan nan nan nan nan nan nan nan nan nan nan nan nan nan nan nan nan nan nan nan nan nan nan nan nan nan nan nan nan nan nan nan nan nan nan nan nan nan nan -0 -0 -0 -0 -0 -0 -0 -0 -0 -0 -0 -0 -0 -0 -0 -0 -0 -0 -0 -0 -0 -0 -0 -0 -0 -0 -0 -0 -0 -0 -0 -0 -0 -0
nan nan nan nan nan nan nan nan nan nan nan nan nan nan nan nan nan nan nan nan nan nan nan nan nan nan nan nan nan nan nan nan nan nan nan nan nan nan nan nan nan nan nan nan nan nan nan nan nan nan nan nan -0 -0 -0 -0 -0 -0 -0 -0 -0 -0 -0 -0 -0 -0 -0 -0 -0 -0 -0 -0 -0 -0 -0 -0 -0 -0 -0 -0 -0 -0 -0 -0 -0 -0
nan nan nan nan nan nan nan nan nan nan nan nan nan nan nan nan nan nan nan nan nan nan nan nan nan nan nan nan nan nan nan nan nan nan nan nan nan nan nan nan nan nan nan nan nan nan nan nan nan nan nan -0 -0 -0 -0 -0 -0 -0 -0 -0 -0 -0 -0 -0 -0 -0 -0 -0 -0 -0 -0 -0 -0 -0 -0 -0 -0 -0 -0 -0 -0 -0 -0 -0 -0 -0
nan nan nan nan nan nan nan nan nan nan nan nan nan nan nan nan nan nan nan nan nan nan nan nan nan nan nan nan nan nan nan nan nan nan nan nan nan nan nan nan nan nan nan nan nan nan nan nan nan nan nan -0 -0 -0 -0 -0 -0 -0 -0 -0 -0 -0 -0 -0 -0 -0 -0 -0 -0 -0 -0 -0 -0 -0 -0 -0 -0 -0 -0 -0 -0 -0 -0 -0 -0 -0
nan nan nan nan nan nan nan nan nan nan nan nan nan nan nan nan nan nan nan nan nan nan nan nan nan nan nan nan nan nan nan nan nan nan nan nan nan nan nan nan nan nan nan nan nan nan nan nan nan nan nan nan -0 -0 -0 -0 -0 -0 -0 -0 -0 -0 -0 -0 -0 -0 -0 -0 -0 -0 -0 -0 -0 -0 -0 -0 -0 -0 -0 -0 -0 -0 -0 -0 -0 -0
nan nan nan nan nan nan nan nan nan nan nan nan nan nan nan nan nan nan nan nan nan nan nan nan nan nan nan nan nan nan nan nan nan nan nan nan nan nan nan nan nan nan nan nan nan nan nan nan nan nan nan nan -0 -0 -0 -0 -0 -0 -0 -0 -0 -0 -0 -0 -0 -0 -0 -0 -0 -0 -0 -0 -0 -0 -0 -0 -0 -0 -0 -0 -0 -0 -0 -0 -0 -0
nan nan nan nan nan nan nan nan nan nan nan nan nan nan nan nan nan nan nan nan nan nan nan nan nan nan nan nan nan nan nan nan nan nan nan nan nan nan nan nan nan nan nan nan nan nan nan nan nan nan nan -0 -0 -0 -0 -0 -0 -0 -0 -0 -0 -0 -0 -0 -0 -0 -0 -0 -0 -0 -0 -0 -0 -0 -0 -0 -0 -0 -0 -0 -0 -0 -0 -0 -0 -0
nan nan nan nan nan nan nan nan nan nan nan nan nan nan nan nan nan nan nan nan nan nan nan nan nan nan nan nan nan nan nan nan nan nan nan nan nan nan nan nan nan nan nan nan nan nan nan nan nan nan nan -0 -0 -0 -0 -0 -0 -0 -0 -0 -0 -0 -0 -0 -0 -0 -0 -0 -0 -0 -0 -0 -0 -0 -0 -0 -0 -0 -0 -0 -0 -0 -0 -0 -0 -0
nan nan nan nan nan nan nan nan nan nan nan nan nan nan nan nan nan nan nan nan nan nan nan nan nan nan nan nan nan nan nan nan nan nan nan nan nan nan nan nan nan nan nan nan nan nan nan nan nan nan nan nan -0 -0 -0 -0 -0 -0 -0 -0 -0 -0 -0 -0 -0 -0 -0 -0 -0 -0 -0 -0 -0 -0 -0 -0 -0 -0 -0 -0 -0 -0 -0 -0 -0 -0
nan nan nan nan nan nan nan nan nan nan nan nan nan nan nan nan -13 -13 nan nan nan nan nan nan nan nan nan nan nan nan nan nan nan nan nan nan nan nan nan nan nan nan nan nan nan nan nan nan nan nan nan nan nan nan -0 -0 -0 -0 -0 -0 -0 -0 -0 -0 -0 -0 -0 -0 -0 -0 -0 -0 -0 -0 -0 -0 -0 -0 -0 -0 -0 -0 -0 -0 -0 -0
nan nan nan nan nan nan nan -0 -0 -0 -16 nan nan nan nan -0 nan nan nan nan nan nan nan nan nan nan nan nan nan nan nan nan nan nan nan nan nan nan nan nan nan nan nan nan nan nan nan nan nan nan nan nan nan nan nan -0 -0 -0 -0 -0 -0 -0 -0 -0 -0 -0 -0 -0 -0 -0 -0 -0 -0 -0 -0 -0 -0 -0 -0 -0 -0 -0 -0 -0 -0 -0
-0 -5 -0 -0 -0 -0 -0 -0 -0 -0 -0 -0 -22 -22 -28 nan nan nan nan nan nan nan nan nan nan nan nan nan nan nan nan nan nan nan nan nan nan nan nan nan nan nan nan nan nan nan nan nan nan nan nan nan nan nan nan -0 -0 -0 -0 -0 -0 -0 -0 -0 -0 -0 -0 -0 -0 -0 -0 -0 -0 -0 -0 -0 -0 -0 -0 -0 -0 -0 -0 -0 -0 -0
nan nan nan -0 -0 -0 -0 -0 -0 -0 -0 -0 -0 -0 -14 nan nan nan nan nan nan nan nan nan nan nan nan nan nan nan nan nan nan nan nan nan nan nan nan nan nan nan nan nan nan nan nan nan nan nan nan nan nan nan nan -0 -0 -0 -0 -0 -0 -0 -0 -0 -0 -0 -0 -0 -0 -0 -0 -0 -0 -0 -0 -0 -0 -0 -0 -0 -0 -0 -0 -0 -0 -12
nan nan nan nan nan nan -0 -0 -0 -0 -0 -0 -0 -0 nan nan nan nan nan nan nan nan nan nan nan nan nan nan nan nan nan nan nan nan nan nan nan nan nan nan nan nan nan nan nan nan nan nan nan nan nan nan nan nan nan -0 -0 -0 -0 -0 -0 -0 -0 -0 -0 -0 -0 -0 -0 -0 -0 -0 -0 -0 -0 -0 -0 -0 -0 -0 -0 -0 -0 -5 -5 -18
nan nan nan nan nan nan nan nan nan nan -0 -0 -0 -0 nan nan nan nan nan nan nan nan nan nan nan nan nan nan nan nan nan nan nan nan nan nan nan nan nan -7 -7 nan nan nan nan nan nan nan nan nan nan nan nan nan nan nan nan nan nan -0 -0 -0 -0 -0 -0 -0 -0 -0 -0 -0 -0 -0 -0 -0 -0 -0 -0 -0 -0 -0 -0 -0 -6 -20 -20 -21
nan nan nan nan nan nan nan nan nan nan nan -0 nan nan nan nan nan nan nan nan nan nan nan nan nan nan nan nan nan nan nan nan nan nan nan nan nan nan nan -6 -6 nan -7 nan nan nan nan nan nan nan nan nan nan nan nan nan nan nan nan nan nan nan -0 -0 -0 -0 -0 -0 -0 -0 -0 -0 -0 -0 -0 -0 -0 -0 -0 -0 -0 -0 -12 -20 -20 -19
nan nan nan nan nan nan nan nan nan nan nan nan nan nan nan nan nan nan nan nan nan nan nan nan nan nan nan nan nan nan nan nan nan nan -13 -4 -3 -3 nan -6 -6 -6 -8 -6 -6 -3 nan nan nan nan nan nan nan nan nan nan nan nan nan nan nan nan nan -0 -0 -0 -0 -0 -0 -0 -0 -0 -0 -0 -0 -0 -0 -0 -0 -0 -0 -0 -5 -16 -16 -11
nan nan nan nan nan nan nan nan nan nan nan nan nan nan nan nan nan nan nan nan nan nan nan nan nan nan nan nan nan nan nan nan nan nan -1 -8 -2 -2 -5 -5 -5 -4 -5 -7 -7 -9 nan nan nan nan nan nan nan nan nan nan nan nan nan nan nan nan nan nan nan nan nan nan nan nan -0 -0 -0 -0 -0 -0 -0 -0 -0 -0 -0 -0 -0 -17 -17 -12
nan nan nan nan nan nan nan nan nan nan nan nan nan nan nan nan nan nan nan nan nan nan nan nan nan nan nan nan nan nan nan nan nan nan -0 -8 -3 -3 -4 -3 -3 -3 -4 -3 -3 -5 nan nan nan nan nan nan nan nan nan nan nan nan nan nan nan nan nan nan nan nan nan nan nan nan nan nan -0 -0 -0 -0 -0 -0 -0 -0 -0 -0 -0 -0 -0 -7
nan nan nan nan nan nan nan nan nan nan nan nan nan nan nan nan nan nan nan nan nan nan nan nan nan nan nan nan -0 -0 nan nan nan nan -0 -6 -4 -4 -3 -3 -3 -3 -3 -3 -3 -3 -4 -2 -2 -0 -2 nan nan nan nan nan nan nan nan nan nan nan nan nan nan nan nan nan nan nan nan nan nan nan nan -0 -0 -0 -0 -0 -0 -0 -0 -0 -0 -0
nan nan nan nan nan nan nan nan nan nan nan nan nan nan nan nan nan nan nan nan nan nan nan nan nan nan nan nan nan nan nan nan -3 -3 -0 -10 nan nan nan -3 -3 -2 -2 -1 -1 -2 -3 -2 -2 -0 -0 nan nan nan nan nan nan nan nan nan nan nan nan nan nan nan nan nan nan nan nan nan nan nan nan -0 -0 -0 -0 -0 -0 -0 -0 -0 -0 -0
nan nan nan nan nan nan nan nan nan nan nan nan nan nan nan nan nan nan nan nan nan nan nan nan nan nan nan nan nan nan nan nan nan nan nan nan nan nan nan -2 -2 -1 nan -1 -1 -2 -2 -1 -1 -0 -1 nan nan nan nan nan nan nan nan nan nan nan nan nan nan nan nan nan nan nan nan nan nan nan nan -0 -0 -0 -0 -0 -0 -0 -0 -0 -0 -0
nan nan nan nan nan nan nan nan nan nan nan nan nan nan nan nan nan nan nan nan nan nan nan nan nan nan nan -0 nan nan nan nan nan nan nan nan nan nan nan nan nan nan nan nan nan nan nan -1 -1 -1 nan nan nan nan nan nan nan nan nan nan nan nan nan nan nan nan nan nan nan nan nan nan nan nan nan nan nan nan nan nan nan nan -0 -0 -0 -0
nan nan nan nan nan nan nan nan nan nan nan nan nan nan nan nan nan nan nan nan nan nan nan nan nan nan nan nan nan nan nan nan nan nan nan nan nan nan nan nan nan nan nan nan nan nan nan nan nan nan nan nan nan nan nan nan nan nan nan nan nan nan nan nan nan nan nan nan nan nan nan nan nan nan nan nan nan nan nan nan nan nan nan nan nan -0
nan nan nan nan nan nan nan nan nan nan nan nan nan nan nan nan nan nan nan nan nan nan nan nan nan nan nan nan nan nan nan nan nan nan nan nan nan nan nan nan nan nan nan nan nan nan nan nan nan -3 -1 -4 nan nan nan nan nan nan -0 nan nan nan nan nan nan nan nan nan nan nan nan nan nan nan nan nan nan nan nan nan nan nan nan nan nan nan
nan nan nan nan nan nan nan nan nan nan nan nan nan nan nan nan nan nan nan nan nan nan nan nan nan nan nan nan nan nan nan nan nan nan nan nan nan nan nan nan nan nan nan nan nan nan nan nan nan -4 -5 -6 -3 -3 -3 nan nan -0 -0 -3 -3 nan nan nan nan nan nan nan nan nan nan nan nan nan nan nan nan nan nan nan nan nan nan nan nan nan
nan nan nan nan nan nan nan nan nan nan nan nan nan nan nan nan nan nan nan nan nan nan nan nan nan nan nan nan nan nan nan nan nan nan nan nan nan nan nan nan nan nan nan nan nan nan nan nan nan -4 nan nan nan nan nan nan nan -0 -0 nan nan nan -4 nan nan nan nan nan nan nan nan nan nan nan nan nan nan nan nan nan nan nan nan nan nan nan
nan nan nan nan nan nan nan nan nan nan nan nan nan nan nan nan nan nan nan nan nan nan nan nan nan nan nan nan nan nan nan nan nan nan nan nan nan nan nan nan nan nan nan nan nan nan nan nan nan nan nan nan nan nan nan nan nan nan nan nan nan nan nan nan nan nan nan nan nan nan nan nan nan nan nan nan nan nan nan nan nan -5 -8 nan nan nan
nan nan nan nan nan nan nan nan nan nan nan nan nan nan nan nan nan nan nan nan nan nan nan nan nan nan nan nan nan nan nan nan nan nan nan nan nan nan nan nan nan nan nan nan nan nan nan nan nan nan nan nan nan nan nan nan nan nan nan nan nan nan nan nan nan nan nan nan nan nan nan nan nan nan nan nan nan nan nan nan nan nan nan nan nan nan
nan nan nan nan nan nan nan nan nan nan nan nan nan nan nan nan nan nan nan nan nan nan nan nan nan nan nan nan nan nan nan nan nan nan nan nan nan nan nan nan nan nan nan nan nan nan nan nan nan nan nan nan nan nan nan nan nan nan nan nan nan nan nan nan nan nan nan nan nan nan nan nan nan nan nan nan nan nan nan nan nan nan nan nan nan nan
nan nan nan nan nan nan nan nan nan nan nan nan nan nan nan nan nan nan nan nan nan nan nan nan nan nan nan nan nan nan nan nan nan nan nan nan nan nan nan nan nan nan nan nan nan nan nan nan nan nan nan nan nan nan nan nan nan nan nan nan nan nan nan nan nan nan nan nan nan nan nan nan nan nan nan nan nan nan nan nan nan nan nan nan nan nan
nan nan nan nan nan nan nan nan nan nan nan nan nan nan nan nan nan nan nan nan nan nan nan nan nan nan nan nan nan nan nan nan nan nan nan nan nan nan nan nan nan nan nan nan nan nan nan nan nan nan nan nan nan nan nan nan nan nan nan nan nan nan nan nan nan nan nan nan nan nan nan nan nan nan nan -12 nan nan nan nan nan nan nan nan nan nan
nan nan nan nan nan nan nan nan nan nan nan nan nan nan nan nan nan nan nan nan nan nan -4 nan nan nan nan nan nan nan nan nan nan nan nan nan nan nan nan nan nan nan nan nan nan nan nan nan nan nan nan nan nan nan nan nan nan nan nan nan nan nan nan nan nan nan nan nan nan nan nan nan nan nan nan nan -10 -10 nan nan nan nan nan nan nan nan
nan nan nan nan nan nan nan nan nan nan nan nan nan nan nan nan -0 -0 -5 nan nan nan nan nan nan nan nan nan nan nan -2 nan nan nan nan nan nan nan nan nan nan nan nan nan nan nan nan nan nan nan nan nan nan nan nan nan nan nan nan nan nan nan nan nan nan nan nan nan nan nan nan nan nan nan nan -8 -9 -9 nan -18 -18 nan nan nan nan nan
nan nan nan nan nan nan nan nan nan nan nan nan nan nan nan nan nan nan nan nan nan nan nan nan nan nan nan nan nan nan nan nan nan nan nan nan nan nan nan nan nan nan nan nan nan nan nan nan nan nan nan nan nan nan nan nan nan nan nan nan nan nan nan nan nan nan nan nan nan nan nan nan nan nan -16 nan -8 -8 -10 -13 -13 -21 nan nan nan nan
nan nan nan nan nan nan nan nan nan nan nan nan nan nan nan nan nan nan nan nan nan nan nan nan nan nan nan nan nan nan -3 nan nan nan nan nan nan nan nan nan nan nan nan nan nan nan nan nan nan nan nan -3 nan nan nan nan nan nan nan nan nan nan nan nan nan nan nan nan nan nan nan nan -21 -21 -16 -12 -9 -9 -9 -12 -12 -20 nan nan nan nan
Wind_Speed
2 2 2 3 3 3 3 4 4 4 4 4 4 4 4 5 5 5 7 6 5 5 5 5 5 6 8 12 14 16 16 16 16 16 16 16 16 16 16 16 16 16 16 16 16 17 17 17 17 18 18 18 18 18 18 18 18 18 18 18 18 18 19 19 19 19 19 19 19 20 20 20 20 20 20 21 21 21 22 22 22 22 22 23 23 23
2 2 2 3 4 4 3 4 4 4 4 4 4 4 4 4 4 4 5 5 5 5 5 5 5 6 7 9 13 16 17 16 16 16 16 16 16 16 16 16 16 16 16 16 16 17 17 17 17 18 18 18 18 18 18 18 18 18 18 18 18 18 18 19 19 19 19 19 19 19 20 20 20 20 20 21 21 21 22 22 22 22 22 22 23 23
2 2 2 3 3 4 3 4 4 3 3 3 3 3 4 4 4 4 4 5 5 5 4 5 5 5 6 8 12 16 17 16 16 16 16 16 16 16 16 16 16 16 16 16 16 17 17 17 17 18 18 18 18 18 18 18 18 18 18 18 18 18 18 18 19 19 19 19 19 19 19 20 20 20 21 21 21 21 22 22 22 22 22 22 23 23
2 2 2 2 3 3 3 3 3 3 3 3 3 3 4 4 4 3 3 4 4 4 4 4 5 5 5 6 10 14 17 16 16 16 16 16 16 16 16 16 16 16 16 16 16 17 17 17 17 18 18 18 18 18 18 18 18 18 18 18 18 18 18 18 19 19 19 19 19 20 20 20 20 21 21 21 21 21 21 21 21 22 22 22 23 23
2 2 2 2 2 3 3 3 3 3 3 2 3 3 3 3 3 3 3 3 4 4 4 4 5 5 4 4 8 12 16 16 16 16 16 16 16 16 16 16 16 16 16 16 16 17 17 17 18 18 18 18 18 18 18 18 18 18 18 18 18 18 18 19 19 19 19 19 19 20 20 20 20 20 20 21 21 21 21 21 21 22 22 22 23 23
2 2 2 2 2 2 2 3 3 3 3 3 3 3 3 3 3 3 3 3 4 4 4 4 4 4 4 4 7 12 14 15 15 15 15 16 16 16 16 16 16 16 16 16 16 16 17 17 18 18 18 18 18 18 18 18 18 18 18 18 18 18 19 19 19 19 19 19 19 20 20 20 20 20 20 20 20 21 21 21 22 22 22 23 23 24
1 2 2 2 2 1 2 3 3 4 3 3 2 3 3 3 3 3 3 3 3 3 3 3 3 3 3 4 6 9 11 12 13 14 14 15 15 15 16 16 16 16 16 16 16 16 17 17 17 18 18 18 18 18 18 18 18 18 18 19 19 19 19 19 19 19 19 19 19 19 19 19 20 20 20 20 20 21 21 22 22 23 23 24 24 24
2 2 3 3 2 2 2 2 3 3 3 2 2 3 3 3 3 2 2 2 2 3 3 3 3 3 3 3 4 6 7 8 9 9 11 12 13 14 15 15 16 16 16 16 16 16 17 17 17 18 18 18 18 18 18 18 18 18 19 19 19 19 19 19 19 19 19 19 19 19 19 19 19 20 20 20 21 21 22 23 23 24 24 24 24 25
2 2 3 3 3 2 2 2 2 2 3 2 2 3 3 4 3 3 3 2 2 3 3 3 3 3 3 2 2 4 6 6 6 7 7 7 8 10 12 13 14 15 16 16 16 16 16 17 17 18 18 18 18 18 18 18 18 18 19 18 18 18 18 19 19 19 19 19 19 19 20 20 20 20 20 21 21 22 22 23 23 24 24 24 25 25
2 2 2 2 2 2 2 2 2 2 2 2 2 2 2 3 4 4 4 3 3 3 3 3 4 4 3 2 2 3 5 6 8 9 9 9 9 10 11 11 12 13 15 15 15 16 16 17 17 18 18 18 18 18 18 18 18 18 18 18 18 18 18 19 19 19 19 20 20 20 20 20 20 21 21 21 22 22 22 23 23 23 24 24 24 24
2 2 2 2 2 2 2 1 2 2 2 2 2 2 2 3 4 4 5 5 5 5 4 4 3 3 3 3 3 3 4 5 6 7 9 9 10 11 11 11 11 12 13 14 14 15 15 16 17 17 18 18 18 18 18 18 18 18 18 18 18 18 19 19 19 20 20 20 20 20 20 21 21 21 21 22 22 22 22 22 22 23 23 23 23 24
2 1 1 1 2 2 2 2 2 2 2 2 3 3 3 3 3 3 4 4 5 5 5 4 3 3 2 2 2 3 4 4 4 5 5 6 6 7 7 7 8 9 10 10 11 13 14 16 16 17 17 17 17 18 18 18 18 18 18 18 19 19 19 19 20 20 20 20 21 21 21 21 21 21 22 22 22 22 22 22 22 22 22 22 23 23
1 1 1 1 1 2 2 2 2 2 2 3 3 3 3 3 3 2 2 3 4 4 4 4 4 3 2 1 1 2 4 4 4 4 4 4 4 4 4 4 5 5 5 6 6 8 11 13 14 15 16 16 17 17 18 18 18 19 19 19 19 19 20 20 20 21 21 21 21 21 21 21 21 21 22 22 22 22 22 22 22 22 22 22 22 22
2 1 2 2 2 2 2 2 2 2 2 2 2 2 2 2 2 2 2 3 3 3 3 4 4 3 2 1 1 2 4 4 4 4 4 4 3 3 3 3 4 4 4 4 4 5 8 9 10 10 13 14 15 16 17 18 19 19 19 19 20 20 20 21 21 21 21 21 21 21 21 21 22 22 22 22 22 22 22 22 22 22 22 22 22 22
1 2 2 2 1 1 1 1 1 1 1 1 1 1 1 2 2 3 3 3 4 4 3 3 3 3 2 2 1 1 4 4 5 5 5 4 3 3 2 3 4 4 4 4 4 5 7 7 6 7 8 11 13 15 17 17 19 20 20 20 20 20 21 21 21 22 22 22 21 21 22 22 22 22 22 22 22 22 22 21 21 21 21 22 22 22
1 2 2 1 1 1 1 0 0 0 1 1 1 1 1 2 2 3 3 3 3 3 4 4 4 3 2 2 1 1 4 5 5 5 5 5 4 3 2 3 4 4 4 4 4 5 5 5 5 6 7 11 15 18 20 19 19 20 20 20 21 21 21 22 22 22 22 22 22 22 22 22 22 22 22 22 22 22 21 21 21 21 21 22 22 22
1 1 1 1 0 1 2 1 1 1 1 1 1 1 1 1 2 2 2 2 3 3 3 3 3 3 3 3 2 2 4 4 5 5 5 5 4 3 2 2 4 4 4 4 4 4 5 5 5 6 7 13 17 20 20 20 20 21 21 21 21 21 22 22 22 22 22 22 22 22 22 22 22 22 22 22 22 22 21 21 21 21 22 22 22 22
1 1 1 1 1 1 2 1 1 1 1 1 1 1 0 0 1 1 1 1 2 2 2 2 2 2 3 4 4 3 4 4 5 5 5 5 4 3 1 2 3 4 4 4 4 4 4 5 5 7 10 16 19 20 21 21 21 21 21 21 21 22 22 22 22 22 22 22 22 22 22 22 22 22 22 22 22 22 21 21 22 22 22 22 22 22
1 1 2 1 1 2 1 1 1 1 1 1 2 2 1 1 1 0 1 1 1 1 2 2 2 2 2 4 4 5 4 4 4 4 5 5 4 3 2 2 3 4 4 4 4 4 4 5 7 11 15 18 20 21 21 21 21 21 21 21 21 22 22 22 22 22 22 22 22 22 22 22 22 22 22 22 22 22 22 22 22 22 22 22 23 23
1 1 2 2 2 1 1 2 2 2 1 1 2 2 2 2 2 2 1 1 1 1 1 1 2 2 3 4 5 5 4 4 3 3 4 4 4 3 2 3 4 5 5 4 4 4 5 5 7 10 15 17 19 20 21 21 21 21 21 21 21 22 22 22 22 22 22 22 22 22 22 22 22 22 22 22 22 22 22 22 22 22 22 23 23 23
2 2 3 3 2 2 1 2 2 2 2 2 1 1 2 2 2 2 2 2 1 1 1 1 2 3 3 4 5 5 4 3 3 3 3 3 3 3 2 3 4 5 5 5 4 4 5 5 6 7 11 16 19 20 21 20 20 20 20 21 21 22 22 22 22 22 22 22 22 22 22 22 22 22 22 22 22 22 22 22 22 23 23 23 23 24
2 3 3 3 3 2 2 3 4 4 3 2 1 1 2 1 2 2 2 1 1 1 1 2 3 3 3 4 4 5 3 2 2 2 3 4 4 4 3 4 5 5 5 5 5 5 5 5 6 7 11 16 19 20 20 20 20 20 20 21 21 22 22 22 22 22 22 22 22 22 22 22 22 22 22 22 22 22 23 23 23 23 23 24 24 24
3 3 3 3 3 3 3 3 3 4 4 3 3 2 2 2 2 2 2 2 2 2 3 3 3 3 3 3 4 4 3 1 1 1 2 3 4 5 4 4 5 5 5 5 5 5 6 5 6 7 10 16 18 19 20 19 20 20 20 21 21 22 22 22 22 22 22 22 22 22 22 22 23 23 23 23 23 23 23 23 23 23 24 24 24 24
3 3 3 4 4 4 3 3 3 3 3 3 3 3 3 3 3 2 2 2 2 1 1 1 2 2 3 3 3 3 3 1 0 1 1 2 4 4 4 5 6 6 6 5 5 6 6 6 6 6 7 12 16 17 18 19 19 20 21 21 21 21 21 21 21 22 22 22 22 23 23 23 23 23 23 23 23 23 23 23 24 24 24 24 24 24
3 4 3 4 4 5 4 4 4 4 3 3 3 3 4 4 3 2 1 1 1 1 1 1 2 2 3 2 2 3 3 2 1 1 1 2 3 4 4 4 5 6 7 6 6 6 6 6 6 6 5 9 12 15 17 18 19 20 21 21 21 21 21 21 21 22 22 22 23 23 23 23 23 23 23 23 23 23 23 24 24 24 25 25 24 23
3 3 3 3 4 5 5 5 5 5 4 3 3 3 3 2 1 1 2 2 1 1 1 1 1 2 2 2 2 3 3 2 1 1 1 1 3 4 4 4 5 6 7 7 6 6 7 7 6 5 5 6 9 12 15 17 19 20 21 21 21 21 21 21 21 22 22 22 23 23 23 23 23 23 23 23 23 24 24 24 24 25 25 24 23 21
3 3 4 4 5 6 7 7 7 7 7 6 5 3 0 1 2 2 2 1 1 1 1 1 1 2 2 1 2 2 3 2 1 1 1 1 3 4 4 4 5 6 8 7 7 7 8 7 6 6 5 4 5 8 13 16 18 20 21 21 21 21 20 21 21 22 22 22 23 23 23 23 23 23 23 23 24 24 24 24 25 25 24 22 19 17
5 5 5 6 6 6 7 7 7 7 7 8 7 5 2 2 2 1 2 2 1 1 0 1 1 2 2 2 2 2 2 2 1 0 0 1 2 3 4 4 5 6 7 7 7 7 7 6 5 5 4 4 4 6 10 14 17 18 19 19 19 20 20 20 21 22 22 22 23 23 23 23 23 23 23 24 24 24 24 25 25 23 21 17 13 10
5 5 5 6 6 7 7 7 7 7 7 7 6 5 4 3 2 1 2 2 1 1 0 1 1 2 2 2 2 2 2 2 2 1 0 2 2 3 3 4 5 5 6 7 7 6 5 4 3 3 3 5 5 5 7 11 12 13 14 16 17 18 19 20 21 21 22 22 22 23 23 23 23 23 23 24 24 24 24 25 24 21 16 12 10 9
4 5 5 5 6 6 6 5 6 6 7 7 6 5 4 2 2 2 2 1 1 1 1 1 1 2 2 2 2 2 2 3 3 2 1 2 3 3 3 4 4 5 5 6 6 6 4 3 2 2 3 5 6 6 6 7 7 8 8 11 13 14 17 19 20 21 21 22 22 22 23 23 23 23 23 24 24 24 24 25 22 17 12 10 9 9
2 3 3 3 4 4 4 3 4 4 5 6 5 4 2 1 1 2 2 1 1 1 0 1 1 1 2 2 2 2 2 3 3 2 1 2 3 3 3 4 4 4 4 4 5 6 6 5 4 3 4 5 6 6 6 6 6 5 5 6 8 10 15 17 19 19 20 20 21 22 22 23 23 23 23 24 24 24 24 24 22 17 11 10 10 10
1 1 2 2 2 2 3 3 3 3 3 3 3 3 2 1 0 1 1 1 2 1 1 1 1 1 2 2 2 2 2 2 2 3 3 2 2 3 3 3 4 4 3 3 3 4 5 5 5 5 5 6 6 5 6 6 5 5 5 5 6 8 13 15 16 16 16 18 19 20 21 22 22 23 23 23 23 24 24 24 22 18 12 11 10 10
1 1 1 2 2 2 2 2 2 2 2 2 2 2 2 2 1 1 1 1 2 2 1 1 1 2 2 2 3 3 3 2 3 4 4 3 2 2 3 3 4 4 4 3 3 4 4 5 6 6 6 6 5 5 5 5 5 5 5 5 6 7 10 11 12 12 12 14 15 16 18 19 20 21 22 22 23 23 24 24 23 21 16 12 11 11
1 1 2 2 2 2 2 2 2 2 2 2 2 2 2 2 2 1 1 1 1 2 2 1 1 2 3 3 3 3 3 3 4 5 5 3 2 3 3 4 4 4 4 4 4 4 4 5 6 6 6 6 5 5 5 5 5 5 4 5 5 6 8 8 9 9 10 10 10 10 12 13 15 17 18 20 21 22 23 24 24 23 21 16 13 11
1 1 2 2 2 2 3 3 2 2 2 2 2 2 2 2 2 2 2 1 1 2 2 2 2 2 3 3 4 4 4 3 4 5 5 3 3 3 4 4 4 4 4 4 4 4 4 6 7 7 7 7 6 5 4 4 4 5 4 5 6 6 7 7 7 7 8 8 8 8 8 9 10 11 13 16 19 21 24 24 25 24 23 21 17 14
1 1 1 1 2 2 2 2 2 2 2 2 2 2 2 2 2 2 2 2 2 2 2 2 2 3 3 3 4 5 5 4 4 5 5 4 3 3 4 4 4 4 4 5 5 5 5 6 7 8 8 8 7 5 4 4 4 5 5 5 6 6 7 7 6 6 7 7 7 8 7 8 8 9 11 16 19 22 23 24 24 24 23 23 21 19
1 1 1 1 1 1 1 2 2 2 2 2 2 2 3 3 3 3 3 3 3 3 3 3 3 4 4 4 4 5 5 5 4 4 5 4 3 4 4 4 4 5 5 5 5 6 6 7 7 8 7 7 6 6 6 6 6 6 6 5 6 6 6 7 7 6 6 7 8 8 8 8 8 9 10 15 18 19 20 21 21 21 22 22 22 21
0 1 1 1 1 1 1 1 2 2 2 2 2 3 3 3 3 4 3 3 3 3 3 3 3 4 6 7 6 6 6 5 5 5 5 4 4 4 4 4 5 5 5 5 6 6 6 7 7 7 7 6 7 7 8 7 8 7 7 6 6 6 6 6 6 6 6 7 8 9 9 9 8 8 9 11 12 12 13 13 14 16 18 19 19 20
1 1 2 2 1 1 2 2 2 2 3 3 3 3 3 3 3 3 3 3 3 3 3 3 3 4 5 6 7 7 7 7 6 6 6 5 4 4 4 4 4 4 4 4 5 6 6 6 7 7 7 7 7 8 7 7 8 8 8 8 7 6 5 6 6 7 7 7 8 8 8 8 8 8 8 8 9 9 10 10 11 12 13 12 13 16
1 2 2 2 2 2 3 3 3 3 3 3 3 3 3 3 3 3 3 2 2 3 3 3 3 4 4 5 6 7 7 6 6 6 5 4 3 3 4 4 4 4 4 4 4 5 6 7 7 8 8 7 7 8 7 7 7 8 9 8 7 6 6 6 6 6 6 5 6 7 7 7 7 8 8 8 9 9 9 9 9 10 11 10 9 10
2 2 2 2 2 2 3 3 3 3 2 2 2 2 2 2 2 2 2 2 2 2 3 3 3 3 4 4 4 5 6 6 6 6 5 5 4 4 4 4 4 4 4 5 5 5 6 7 8 8 8 8 8 9 9 8 9 10 11 9 8 7 8 8 7 6 5 5 6 6 8 9 9 9 9 9 9 9 9 9 10 10 10 9 8 8
3 2 2 2 2 2 2 2 2 2 1 1 1 1 1 1 1 1 2 2 2 2 2 2 2 3 3 4 4 4 5 5 6 6 6 6 6 5 4 4 4 4 4 5 5 6 6 7 8 8 8 8 8 8 9 9 9 9 9 9 9 10 9 8 6 5 5 6 7 7 9 8 8 8 9 9 9 9 10 10 11 12 11 9 8 7
3 2 2 2 2 2 1 1 1 1 1 1 1 1 2 1 1 1 1 2 2 2 3 3 3 3 4 4 3 3 3 4 5 5 6 6 6 5 5 5 5 4 4 5 5 5 5 6 7 7 7 7 7 8 10 9 9 8 8 8 9 9 7 6 5 5 5 7 7 7 7 8 8 8 8 9 9 8 9 10 12 13 12 10 9 8
2 2 2 2 1 0 0 1 1 1 1 1 1 2 2 2 2 2 2 2 2 2 3 3 3 3 3 4 3 3 3 3 4 4 5 6 6 6 5 5 5 5 4 4 4 5 5 6 6 6 5 6 7 8 9 9 9 8 7 8 8 8 7 7 7 7 7 7 7 7 7 7 8 8 9 8 8 8 8 9 9 9 10 9 9 9
1 1 1 1 0 0 0 1 1 1 1 1 2 2 2 2 2 2 2 2 2 2 2 3 3 3 4 3 3 3 3 3 3 3 4 6 7 8 6 5 5 5 4 4 4 4 5 6 6 6 5 5 6 8 9 9 8 8 8 8 8 8 8 7 7 7 7 8 8 7 7 8 8 9 9 9 9 8 8 9 9 9 9 9 8 9
1 1 1 1 1 1 1 1 1 1 1 2 2 2 2 2 2 2 2 2 2 2 2 2 3 3 4 4 4 4 3 3 3 3 3 3 4 4 5 5 5 4 4 4 4 5 5 6 6 7 6 6 7 7 8 7 7 7 7 8 8 7 7 7 7 7 7 8 8 8 9 9 9 9 9 9 9 9 8 8 9 9 9 9 9 9
1 1 2 2 1 1 2 2 2 1 1 2 2 2 2 2 2 2 2 2 2 2 2 2 3 3 4 5 4 4 5 5 4 3 3 3 3 3 4 4 4 4 4 4 5 6 6 7 7 6 6 6 7 7 7 6 6 6 7 7 7 7 6 6 6 7 7 7 7 8 8 8 9 10 10 10 10 9 8 8 8 9 9 9 9 9
2 2 2 2 2 2 2 2 2 2 2 2 2 3 3 3 3 3 3 2 2 3 3 3 3 4 4 4 4 4 6 6 5 4 4 3 3 3 3 3 4 4 5 5 6 7 7 7 8 7 7 6 6 7 7 6 6 6 6 6 6 6 7 7 7 7 7 7 8 8 8 8 9 10 11 10 10 9 9 9 8 8 8 8 9 9
3 3 3 2 2 2 2 2 2 2 2 3 3 3 3 4 5 5 3 2 2 2 2 3 4 4 5 4 4 5 6 6 5 4 4 3 3 3 3 3 3 4 4 5 5 5 6 7 8 8 8 7 7 7 7 6 6 5 5 5 5 6 7 7 7 7 7 8 8 8 8 8 9 10 10 11 11 10 10 9 9 8 8 8 9 9
3 3 3 3 2 2 2 2 2 3 3 3 3 3 3 3 3 3 3 2 2 2 3 3 4 5 5 5 5 5 5 5 5 5 4 4 4 4 4 4 4 4 5 4 4 4 4 4 5 7 9 9 8 7 6 6 5 5 5 5 5 5 6 7 7 7 7 8 9 9 9 9 9 9 9 10 11 11 11 10 9 9 8 8 9 10
3 2 2 2 2 3 2 2 3 3 3 3 4 4 3 3 2 2 2 2 2 3 3 3 4 5 6 6 6 5 5 5 5 5 5 4 4 4 5 5 5 5 6 5 5 4 4 4 4 4 6 8 8 6 4 4 5 5 6 5 5 5 6 7 7 8 9 9 9 9 9 9 9 9 8 9 10 11 10 10 10 10 9 9 10 11
Wind_Direction
49 48 39 43 54 55 28 16 21 29 26 23 21 19 16 15 14 15 17 18 17 15 15 11 7 3 1 9 16 21 24 24 24 24 23 22 21 20 19 19 19 18 18 17 16 16 14 13 12 11 10 8 7 5 4 3 1 359 358 356 355 353 352 351 350 349 349 348 347 346 345 344 342 341 340 340 340 339 339 338 337 336 335 334 333 332
35 45 44 42 52 56 34 15 18 28 29 21 17 15 12 10 10 12 14 15 14 15 15 11 7 3 357 2 12 19 21 21 21 21 21 20 19 18 17 17 17 16 16 16 15 14 13 12 11 10 9 8 6 5 4 3 1 359 358 356 354 353 352 351 350 349 348 347 346 345 344 343 342 341 340 340 339 339 337 336 335 334 334 333 332 332
27 41 44 44 51 52 40 17 13 20 28 20 14 10 10 11 13 13 12 9 8 9 12 11 9 4 358 360 10 16 18 18 19 19 19 18 17 16 15 15 14 14 14 14 13 12 12 11 10 9 8 7 6 5 4 2 0 359 357 355 354 353 352 351 350 349 348 347 346 344 343 342 341 341 340 340 339 338 336 335 334 333 333 332 332 332
29 42 44 47 52 53 44 23 13 10 16 13 8 7 12 15 14 11 8 4 2 3 4 6 7 5 359 358 7 12 15 15 16 16 16 15 14 14 13 12 12 12 11 11 11 10 10 9 8 7 7 6 5 4 3 1 360 358 356 355 354 352 351 350 349 348 347 346 345 344 343 342 341 341 340 339 338 336 335 334 333 333 333 332 332 332
27 36 35 47 51 49 38 28 16 8 5 8 7 7 13 12 8 3 1 2 4 2 1 2 3 2 359 357 5 10 11 12 12 13 13 12 11 11 10 10 9 9 8 8 8 8 7 7 6 6 5 4 3 2 1 360 358 357 355 354 353 352 351 350 349 348 347 346 345 344 343 342 341 340 339 338 337 335 334 334 333 333 333 333 332 332
29 29 29 45 52 49 34 30 21 13 3 4 5 7 9 4 1 359 359 2 4 4 359 357 355 354 352 354 4 9 9 9 9 9 9 8 8 7 7 6 6 6 5 5 5 5 4 4 4 3 3 2 1 0 359 358 357 355 354 353 352 351 350 349 348 348 347 346 345 344 342 341 340 339 338 337 336 336 335 335 334 334 334 334 333 332
36 28 32 35 35 35 33 32 25 18 9 5 3 3 3 359 358 355 351 354 358 359 356 351 347 345 344 351 1 6 6 5 4 4 5 4 4 3 3 3 3 2 2 2 2 2 1 1 1 1 0 360 359 358 357 356 355 354 352 351 350 350 349 348 348 347 347 346 344 343 342 341 340 339 338 338 337 337 337 336 336 336 335 334 333 332
55 36 36 32 24 14 12 19 22 20 14 10 8 4 1 358 354 347 336 340 349 355 355 350 347 343 337 342 353 0 3 2 360 359 0 0 359 359 360 359 359 359 358 358 358 358 358 358 358 358 358 357 356 356 355 354 353 351 350 349 349 348 348 347 347 347 346 345 344 343 341 341 340 339 339 339 339 339 338 338 337 337 336 335 333 332
78 58 43 41 36 26 13 1 1 8 13 16 17 13 7 359 353 346 343 346 354 358 357 352 346 339 330 328 342 357 4 2 358 355 356 355 355 355 356 356 356 355 354 354 354 354 355 355 355 355 355 354 354 353 352 351 350 349 348 347 347 346 347 347 347 346 346 345 344 343 342 341 341 341 341 341 340 340 339 339 338 337 335 334 332 331
78 69 49 38 38 41 37 3 345 342 358 14 29 33 26 10 359 353 352 351 353 355 356 351 344 336 327 325 337 356 4 0 357 354 353 350 350 351 352 352 351 350 350 350 350 351 352 352 353 353 353 352 350 349 348 347 347 346 345 345 345 345 346 346 346 346 345 345 344 343 343 342 342 342 342 341 341 340 339 338 337 336 334 333 331 329
58 55 49 25 18 25 41 8 336 327 345 1 14 28 36 24 12 2 356 350 348 348 349 345 339 332 325 326 335 348 1 357 354 351 349 346 346 346 347 347 346 345 345 346 346 347 348 350 351 351 350 348 347 345 344 344 344 343 343 343 344 345 346 346 346 346 346 345 344 344 343 343 343 342 342 341 341 340 339 337 336 334 333 331 330 328
56 49 46 30 17 11 15 356 342 339 357 7 11 12 15 17 15 9 358 346 342 341 340 335 328 319 309 314 327 342 357 355 350 344 340 339 339 340 341 342 342 341 341 341 341 343 345 347 348 348 346 344 342 341 341 341 341 342 342 342 343 344 346 346 346 346 346 345 345 344 343 343 342 342 341 341 340 339 337 336 334 333 331 330 328 327
54 51 49 37 28 19 11 4 2 5 11 19 19 13 358 355 358 1 354 336 331 331 330 327 321 312 294 287 324 347 356 352 346 339 335 332 331 332 334 335 335 334 335 335 335 338 342 345 345 344 342 339 337 337 338 339 340 341 341 342 343 344 345 346 346 346 345 345 344 343 343 342 342 341 340 339 338 337 336 335 333 332 330 329 328 327
44 40 44 37 27 17 10 15 17 16 10 17 19 10 336 331 339 347 344 333 325 321 318 318 312 306 296 293 317 350 360 351 343 337 335 328 322 320 327 329 330 329 329 330 330 333 339 342 342 338 337 334 333 334 336 338 340 340 341 342 343 344 345 345 345 345 345 344 343 343 342 341 340 340 339 338 337 336 335 333 332 331 329 328 327 327
58 54 53 37 20 359 354 15 21 11 340 333 342 347 328 335 343 349 350 341 333 326 326 321 312 301 292 289 294 343 5 353 345 337 334 325 317 311 320 327 328 327 330 332 330 330 335 338 334 329 328 327 329 332 336 338 339 340 341 342 343 344 344 345 345 344 344 343 342 341 340 340 339 338 337 337 336 335 334 333 331 330 329 328 328 327
85 82 80 63 12 320 298 314 338 303 284 284 303 339 357 350 348 348 351 340 334 334 340 340 336 327 306 283 287 357 11 355 344 335 329 322 317 313 324 334 332 330 332 331 328 327 330 331 329 325 322 326 330 333 336 337 338 340 340 341 342 343 344 344 343 343 342 341 340 339 339 338 337 337 336 336 335 334 333 332 331 330 329 329 328 328
94 96 103 103 273 279 270 257 234 231 257 279 298 335 3 350 342 341 342 336 337 341 348 350 347 339 324 317 330 11 14 356 341 329 324 318 313 310 321 336 332 328 328 327 325 324 326 328 327 325 322 327 331 334 336 337 338 339 340 341 341 342 342 342 342 341 340 339 338 337 337 336 336 335 335 334 334 333 332 331 331 330 329 329 329 328
105 118 125 139 213 249 260 259 248 240 251 297 317 322 324 309 326 328 328 332 338 340 338 343 335 324 319 318 322 338 3 352 336 324 320 314 308 303 310 330 328 323 323 322 321 321 324 326 327 327 325 329 332 333 335 336 337 338 338 339 340 340 341 340 340 339 338 337 336 335 335 334 334 334 334 333 333 332 332 331 331 330 330 329 329 328
137 153 152 177 206 231 247 241 236 232 250 315 326 324 319 306 290 271 266 290 310 316 318 312 301 289 289 295 304 317 344 341 330 320 315 309 306 305 312 334 331 326 324 321 321 321 324 324 325 326 327 329 330 332 333 334 335 336 337 337 338 338 338 338 337 336 336 335 334 334 333 333 333 333 333 332 332 332 331 331 331 330 330 329 329 328
159 184 188 188 191 207 251 243 230 223 233 285 305 311 311 307 304 299 285 284 275 265 265 270 277 279 278 290 299 310 327 334 329 317 307 302 301 305 321 340 336 331 325 322 321 324 325 325 324 325 326 327 329 330 332 332 333 334 334 335 336 336 336 335 335 334 333 333 332 332 332 332 332 332 332 332 331 331 331 331 330 330 330 329 328 328
167 206 213 186 169 169 227 234 229 227 233 258 278 287 287 295 297 298 292 293 283 264 239 250 261 266 270 288 296 303 315 331 331 320 306 301 302 311 333 342 338 331 326 322 323 325 326 325 323 322 323 325 327 328 329 330 331 332 333 333 334 334 334 333 333 332 332 331 331 331 331 331 331 331 331 331 331 331 330 331 330 330 329 328 328 327
170 207 219 191 173 174 208 220 226 229 232 232 233 241 259 270 276 274 267 266 254 238 236 244 248 252 256 270 280 288 301 314 316 311 310 310 311 319 339 343 337 329 324 323 324 326 326 324 321 320 321 323 324 326 327 328 329 330 331 331 332 332 332 331 331 330 330 330 330 330 331 331 331 331 331 331 330 330 330 330 330 329 329 328 328 327
174 197 209 193 189 194 207 217 228 233 235 229 227 226 227 233 239 239 231 223 222 224 229 238 248 257 260 266 275 283 293 285 283 305 323 314 314 320 337 340 335 328 323 324 326 327 325 322 319 318 318 321 322 323 324 326 327 328 329 330 330 330 330 330 329 329 329 329 330 330 330 330 330 330 330 330 330 330 330 330 329 329 328 328 328 328
182 196 203 201 203 208 215 224 231 236 233 231 231 231 232 231 231 228 215 198 196 207 227 265 297 306 295 286 286 291 293 305 22 51 359 311 309 317 332 336 332 327 321 324 326 325 323 320 317 315 314 317 318 320 321 323 325 326 327 328 328 328 328 328 328 328 329 329 329 329 329 329 329 329 329 329 329 329 329 329 329 328 328 328 328 328
191 199 208 210 213 217 225 232 238 238 230 224 225 232 238 240 246 256 44 90 100 98 38 10 342 320 301 302 302 300 295 314 19 64 23 308 306 313 324 331 329 325 320 322 325 326 321 317 315 314 313 313 314 316 319 321 323 325 326 326 327 327 327 328 328 328 328 329 329 329 329 328 328 328 328 329 329 329 329 329 328 328 327 327 327 327
198 206 221 242 255 264 278 286 288 287 282 263 239 225 225 223 228 32 34 35 41 46 31 6 324 295 286 299 301 298 296 308 340 82 82 318 312 314 320 330 329 325 319 321 324 326 321 316 314 314 313 309 311 314 316 319 321 323 324 325 325 326 327 327 327 328 328 328 328 328 328 327 327 328 328 328 328 328 328 328 328 328 328 327 327 327
339 319 316 319 322 326 329 331 326 321 315 308 300 286 200 110 69 34 357 332 350 49 42 341 308 293 293 298 294 288 291 303 321 67 102 343 319 317 321 331 331 327 321 319 321 321 317 313 312 311 309 305 305 310 315 318 320 321 322 323 324 325 326 326 327 327 327 327 327 327 327 326 327 327 327 328 328 328 328 328 328 327 327 327 327 326
0 353 349 346 344 344 345 343 338 331 322 314 316 328 27 77 73 27 299 267 226 113 89 305 301 303 304 300 289 284 286 290 289 271 136 349 324 317 322 332 332 329 323 318 315 313 310 304 302 300 300 300 302 308 314 317 318 318 319 320 322 323 325 326 326 326 327 327 326 326 326 326 326 326 327 327 327 327 327 327 327 327 327 327 325 322
9 4 358 354 354 356 357 354 346 337 328 324 334 357 39 81 106 165 244 224 187 125 320 295 296 297 300 300 295 291 287 280 272 261 263 334 323 317 324 331 332 330 326 319 314 310 303 294 288 289 294 305 310 314 314 316 315 315 314 317 320 322 324 325 325 326 326 326 326 325 325 325 326 326 326 326 326 327 327 328 328 327 327 325 323 320
8 7 0 357 358 0 0 353 344 338 337 342 357 20 51 94 137 173 209 184 147 113 308 298 299 302 308 311 312 306 293 280 268 261 309 333 324 320 327 329 330 331 331 324 319 315 310 300 292 292 304 314 317 316 312 312 310 309 309 314 318 321 323 324 325 325 325 325 325 324 324 325 325 325 325 325 325 326 327 328 328 327 325 323 321 320
355 356 347 342 346 350 350 341 336 336 341 352 4 18 37 85 149 172 182 156 138 131 221 283 296 308 321 321 318 306 289 278 272 276 326 328 320 316 326 324 324 326 332 327 321 316 313 312 312 314 318 317 315 312 309 308 307 307 308 313 316 319 322 323 324 324 324 323 323 323 323 323 324 324 324 324 325 325 326 327 328 327 324 323 321 319
327 333 323 320 325 331 336 337 336 337 340 348 353 356 354 356 236 181 168 155 145 146 165 240 288 303 308 293 281 274 276 282 294 310 330 323 312 311 321 317 315 315 319 313 305 302 305 308 313 318 321 317 312 309 308 307 307 309 311 315 316 318 321 322 322 322 321 321 322 322 322 322 322 322 322 323 324 325 325 326 327 327 325 323 320 318
323 324 321 323 327 331 334 339 341 339 337 336 334 333 334 331 319 276 193 168 156 151 161 211 286 297 295 279 270 267 272 280 302 314 324 320 311 308 313 311 309 308 308 299 287 281 283 294 303 309 313 311 310 308 307 307 308 310 315 317 317 316 318 320 320 319 318 318 319 319 319 319 319 320 321 322 323 324 324 325 326 326 326 322 319 317
2 343 339 341 341 339 339 341 341 339 334 329 322 320 319 317 311 299 264 214 183 172 172 194 253 282 285 280 276 274 274 278 296 308 319 318 310 305 306 305 304 304 303 299 291 285 279 287 296 302 305 306 306 306 305 306 309 311 314 316 315 314 314 316 315 314 313 315 315 315 315 316 316 317 319 320 321 322 323 324 324 324 324 322 319 318
18 355 349 349 347 343 339 338 336 333 327 317 311 306 305 300 293 281 269 248 224 208 197 204 224 250 268 276 279 280 281 281 296 306 312 311 307 303 301 298 299 300 300 297 296 294 290 291 295 299 302 304 304 304 302 304 307 310 311 311 310 308 308 310 310 310 311 312 311 309 310 310 312 314 317 319 320 321 322 322 322 322 322 321 319 317
30 355 337 341 341 335 326 322 319 317 311 299 292 287 286 282 275 268 261 255 251 248 245 235 231 236 246 260 269 276 282 285 293 299 301 300 298 295 292 291 293 295 294 294 294 294 294 294 296 298 299 301 302 304 305 306 309 310 309 309 306 304 303 304 305 306 307 308 308 308 308 309 311 313 314 317 318 319 320 320 320 320 319 319 317 316
52 331 304 306 305 299 296 297 293 289 283 280 279 277 276 271 268 265 261 256 256 258 261 256 251 248 250 252 257 265 274 280 284 285 285 282 281 281 281 283 286 287 287 290 292 294 295 295 297 297 297 297 299 304 309 313 314 314 311 309 306 304 301 302 303 303 304 304 304 305 307 309 311 313 313 316 317 317 318 318 317 317 317 316 315 313
82 281 279 270 254 243 250 259 258 253 250 253 260 265 265 262 260 259 259 256 255 257 261 261 261 262 265 269 270 271 275 277 277 275 272 266 264 266 271 276 279 278 278 282 286 290 293 294 296 298 297 295 295 299 306 311 313 312 309 307 304 301 299 300 301 302 301 301 302 304 307 309 311 312 312 314 315 315 315 315 315 314 314 313 312 311
195 238 253 246 228 214 214 228 235 237 238 243 250 257 260 260 261 260 260 259 257 256 256 259 263 267 269 273 276 277 279 277 275 272 268 260 251 250 257 266 271 273 272 273 278 281 284 286 289 292 296 297 299 301 303 305 306 307 307 306 304 301 300 301 302 301 299 300 302 304 308 309 310 311 310 311 312 312 312 311 311 312 313 311 309 308
203 219 235 232 220 207 209 222 230 237 241 253 263 270 272 277 280 281 280 278 276 269 259 257 259 264 266 268 272 274 275 273 272 269 265 255 242 236 239 253 264 272 275 273 273 274 276 278 281 284 288 293 297 300 301 302 304 306 309 308 308 308 309 306 302 298 296 298 301 305 307 308 309 309 309 310 310 309 309 308 308 308 309 307 306 306
200 216 234 236 228 219 216 225 231 237 243 257 277 291 294 296 298 300 303 306 301 291 280 273 272 272 272 270 268 267 267 267 266 263 259 252 245 240 237 245 255 266 273 273 272 270 271 275 279 283 286 289 292 294 295 296 300 303 306 305 304 303 305 302 300 298 298 300 302 305 307 309 310 310 309 308 306 304 303 303 303 303 303 302 301 302
208 215 226 231 231 232 234 242 248 248 238 245 282 290 283 281 285 290 299 303 298 292 285 283 284 286 284 279 274 269 266 264 262 259 258 254 249 245 242 245 250 259 268 272 272 272 271 275 279 283 286 290 292 293 293 294 296 299 300 299 299 300 299 298 297 298 304 305 305 307 309 309 309 309 307 306 304 301 300 299 299 300 301 301 300 298
218 220 223 225 230 238 255 280 287 290 311 339 307 280 263 255 256 266 278 279 281 283 287 287 288 290 289 287 284 281 276 270 265 262 260 256 251 246 242 243 247 253 263 272 275 276 274 275 276 278 281 285 287 288 289 292 294 294 293 295 300 303 304 303 304 306 306 306 307 307 307 307 306 305 305 303 301 300 299 297 297 298 299 299 297 295
219 226 231 234 236 259 325 305 298 306 327 306 287 277 270 262 261 267 274 270 273 278 285 289 290 289 286 285 283 282 280 280 279 275 268 261 253 247 248 245 247 251 255 266 276 282 286 282 280 278 278 280 281 282 284 288 291 292 292 293 294 295 294 300 306 310 309 307 306 305 304 304 304 304 303 301 300 298 298 297 296 296 295 294 293 292
212 235 249 239 221 169 236 262 274 291 298 282 275 273 275 273 272 270 266 269 273 276 279 288 295 295 291 288 287 287 284 285 286 285 278 272 269 267 263 258 256 255 253 253 260 272 284 286 285 284 283 280 278 278 280 284 287 288 289 290 290 289 288 295 302 306 307 306 305 304 304 305 306 306 304 302 300 299 298 297 297 296 295 294 293 293
190 229 248 226 209 208 231 245 257 277 284 278 273 270 267 269 268 267 263 265 268 273 275 286 295 296 294 297 298 299 296 291 284 280 276 274 275 274 269 262 258 255 254 253 255 258 265 273 279 284 286 283 278 274 273 276 280 284 286 289 290 291 293 297 300 302 303 303 303 304 305 307 307 306 303 301 300 299 297 295 295 295 297 297 296 295
194 214 231 231 230 235 245 254 259 262 266 270 269 268 265 264 263 262 261 259 263 273 283 290 290 288 287 291 296 299 300 298 294 288 281 277 274 271 267 264 259 256 259 262 263 262 262 263 267 271 277 281 281 279 275 273 275 279 284 288 292 295 298 299 300 300 299 300 301 304 308 310 308 305 302 300 299 298 296 295 294 294 295 297 298 298
202 216 233 241 248 253 257 255 255 258 263 269 270 270 270 264 266 268 266 261 269 282 293 294 291 286 285 283 285 290 295 296 298 297 296 290 284 280 278 280 279 277 274 273 271 268 265 262 259 258 259 264 271 276 280 278 277 277 281 288 295 299 300 300 299 300 300 299 300 302 306 307 307 305 303 301 299 297 296 296 296 296 297 298 300 300
210 223 237 240 237 233 233 236 241 253 268 272 272 270 270 268 273 278 279 276 276 278 286 288 288 288 288 286 286 288 291 293 295 297 298 298 297 298 298 298 298 296 292 283 275 270 265 261 255 250 246 246 253 264 275 278 279 280 283 290 296 299 299 299 300 302 303 301 300 301 301 300 299 299 300 299 298 297 296 298 299 300 300 301 301 302
216 221 230 231 229 227 231 240 250 261 272 273 272 271 272 269 270 274 277 277 277 275 275 280 283 286 287 288 288 289 290 292 293 295 296 300 306 308 309 309 308 306 303 298 292 285 280 271 261 252 246 245 247 255 266 276 284 291 294 296 297 299 299 300 301 303 304 303 302 301 299 297 296 295 295 295 295 296 297 299 300 302 304 304 304 303
220 220 220 225 231 238 244 254 262 266 270 271 273 274 276 275 275 275 275 279 279 279 278 276 278 280 283 286 287 287 289 292 294 296 298 303 307 309 309 310 311 312 311 309 307 305 301 297 290 277 262 258 260 265 269 285 297 303 303 300 300 300 300 301 302 303 304 303 302 301 299 297 296 295 294 295 296 297 298 300 302 304 306 307 306 304